Weather History for CYTZ - November, 2013

Change the Weather History Date:

Thursday, November 7, 2013

  Actual Average Record
Temperature  
Mean Temperature 43 °F -  
Max Temperature 47 °F 43 °F 62 °F (1996)
Min Temperature 39 °F 32 °F 23 °F (2002)
Degree Days  
Heating Degree Days 22    
Moisture  
Dew Point 35 °F    
Average Humidity 69    
Maximum Humidity 94    
Minimum Humidity 46    
Precipitation  
Precipitation 0.00 in 0.09 in - ()
Sea Level Pressure  
Sea Level Pressure 29.94 in    
Wind  
Wind Speed 15 mph ()    
Max Wind Speed 24 mph    
Max Gust Speed 34 mph    
Visibility 9.1 miles    
Events Rain    
Averages and records for this station are not official NWS values.
T = Trace of Precipitation, MM = Missing Value Source: Averaged Metar Reports

Daily Weather History Graph

Daily Weather History Graph

Search for Another Location

Airport or City:

Trip Planner

Search our weather history database for the weather conditions in past years. The results will help you decide how hot, cold, wet, or windy it might be!

Date:

Astronomy

Nov. 07, 2013 Rise Set
Actual Time 7:01 AM EST 5:00 PM EST
Civil Twilight 6:31 AM EST 5:30 PM EST
Nautical Twilight 5:56 AM EST 6:05 PM EST
Astronomical Twilight 5:23 AM EST 6:38 PM EST
Moon 11:10 AM EST (11/7) 9:08 PM EST (11/7)
Length of Visible Light 10h 59m
Length of Day
9h 59m
Waxing Crescent, 22% of the Moon is Illuminated
Nov 7
Waxing Crescent
Nov 10
First Quarter
Nov 17
Full
Nov 25
Last Quarter
Dec 2
New

Hourly Weather History & Observations

Time (EST) Temp. Windchill Dew Point Humidity Pressure Visibility Wind Dir Wind Speed Gust Speed Precip Events Conditions
12:00 AM 51.8 °F - 50.0 °F 94% 29.78 in 7.0 mi West 17.3 mph - N/A Rain Light Rain
12:21 AM 51.8 °F - 44.6 °F 76% 29.80 in 9.0 mi WNW 20.7 mph 34.5 mph N/A Rain Light Rain
12:54 AM 48.2 °F - 42.8 °F 82% 29.81 in 9.0 mi WNW 21.9 mph 28.8 mph N/A   Overcast
1:00 AM 49 °F - 42 °F 71% 29.82 in 10 mi WNW 23.0 mph - -   Clear
1:00 AM 48.2 °F - 42.8 °F 82% 29.82 in 9.0 mi WNW 24.2 mph 34.5 mph N/A   Overcast
1:36 AM 46.4 °F 39.2 °F 41.0 °F 81% 29.83 in 9.0 mi WNW 18.4 mph 25.3 mph N/A   Overcast
2:00 AM 46.4 °F 39.2 °F 41.0 °F 81% 29.85 in 9.0 mi WNW 18.4 mph 27.6 mph N/A   Overcast
2:41 AM 46.4 °F 40.4 °F 39.2 °F 76% 29.85 in 9.0 mi WNW 13.8 mph 20.7 mph N/A   Overcast
3:00 AM 46.4 °F 40.1 °F 39.2 °F 76% 29.88 in 9.0 mi West 15.0 mph - N/A   Overcast
4:00 AM 44.6 °F 38.8 °F 37.4 °F 76% 29.89 in 9.0 mi WNW 11.5 mph 23.0 mph N/A   Overcast
5:00 AM 44.6 °F 40.2 °F 37.4 °F 76% 29.91 in 9.0 mi WNW 8.1 mph 19.6 mph N/A   Overcast
6:00 AM 42.8 °F 36.6 °F 35.6 °F 76% 29.93 in 9.0 mi WNW 11.5 mph - N/A   Overcast
7:00 AM 42 °F - 34 °F 66% 29.96 in 10 mi West 9.2 mph - -  
7:00 AM 41.0 °F 35.2 °F 33.8 °F 76% 29.96 in 9.0 mi West 9.2 mph - N/A   Clear
8:00 AM 42.8 °F 36.6 °F 33.8 °F 70% 29.97 in 9.0 mi West 11.5 mph - N/A   Clear
9:00 AM 44.6 °F 37.8 °F 32.0 °F 61% 29.98 in 9.0 mi WNW 15.0 mph 20.7 mph N/A   Clear
10:00 AM 44.6 °F 37.2 °F 32.0 °F 61% 29.99 in 9.0 mi West 17.3 mph 24.2 mph N/A   Overcast
11:00 AM 46.4 °F 39.5 °F 28.4 °F 50% 29.99 in 9.0 mi WNW 17.3 mph - N/A   Overcast
12:00 PM 44.6 °F 37.4 °F 28.4 °F 53% 29.99 in 9.0 mi WNW 16.1 mph 23.0 mph N/A   Overcast
1:00 PM 44 °F - 30 °F 46% 29.98 in 10 mi NW 11.5 mph - -   Overcast
1:00 PM 44.6 °F 39.2 °F 30.2 °F 57% 29.98 in 9.0 mi NW 10.4 mph - N/A   Overcast
2:00 PM 44.6 °F 40.2 °F 32.0 °F 61% 29.98 in 9.0 mi West 8.1 mph - N/A   Overcast
2:57 PM 44.6 °F 36.6 °F 32.0 °F 61% 29.97 in 9.0 mi West 19.6 mph - N/A   Overcast
3:00 PM 44.6 °F 36.9 °F 32.0 °F 61% 29.97 in 9.0 mi West 18.4 mph - N/A   Overcast
4:00 PM 42.8 °F 34.0 °F 32.0 °F 66% 29.97 in 9.0 mi West 20.7 mph 26.5 mph N/A   Overcast
4:06 PM 42.8 °F 35.1 °F 32.0 °F 66% 29.97 in 9.0 mi WNW 16.1 mph 26.5 mph N/A Rain Light Rain
4:27 PM 42.8 °F 35.4 °F 30.2 °F 61% 29.97 in 9.0 mi West 15.0 mph - N/A   Overcast
5:00 PM 42.8 °F 35.4 °F 32.0 °F 66% 29.98 in 9.0 mi NW 15.0 mph 20.7 mph N/A   Overcast
6:00 PM 42.8 °F 34.8 °F 30.2 °F 61% 29.99 in 9.0 mi West 17.3 mph 24.2 mph N/A   Overcast
7:00 PM 42 °F - 31 °F 53% 30.01 in 10 mi West 13.8 mph - -   Overcast
7:00 PM 41.0 °F 33.1 °F 30.2 °F 65% 30.01 in 9.0 mi West 15.0 mph - N/A   Overcast
8:00 PM 41.0 °F 31.6 °F 32.0 °F 70% 30.01 in 9.0 mi West 20.7 mph - N/A   Overcast
9:00 PM 41.0 °F 32.5 °F 32.0 °F 70% 30.00 in 9.0 mi West 17.3 mph 24.2 mph N/A   Overcast
10:00 PM 39.2 °F 31.6 °F 32.0 °F 75% 30.01 in 9.0 mi West 12.7 mph 20.7 mph N/A   Overcast
11:00 PM 39.2 °F 30.2 °F 33.8 °F 81% 29.99 in 9.0 mi West 17.3 mph 27.6 mph N/A   Overcast